STARLINK-33988, 63938

Orbit data source: Space-Track

STARLINK-33988, 63938 is a payload satellite owned by SpaceX/Seattle (US) in LEO that was launched on Tue, 13 May 2025 UTC via an FALCON 9 launch vehicle from the Air Force Western Test Range (AFWTR). Payload-class satellites include a variety of spacecraft equipped with specific instruments for various scientific and technological missions. These include communications satellites like Starlink; space stations such as the ISS; scientific satellites like the Hubble; Earth observation satellites from companies like Planet Labs, Umbra, and HawkEye 360; GPS; miniature CubeSats for education and research; and military/defense satellites.

Loading next visibility...
Identifier
63938, 2025-098N
Orbit
LEO
Last TLE update
4 hours ago
Origin
Manufacturer
SpaceX/Seattle
Mission
Operational spacecraft
Bus & Motor
STARLINK V2MO, Unknown motor
Mass
575 kg wet, ~530 kg dry
Launch date (UTC)
2025-05-13 (1 month ago)
Launch vehicle
FALCON 9
Launch site
Air Force Western Test Range (AFWTR)
Object type
Payload
Rocket body
Debris
Shape & HBR
Unknown
Radar Cross Section
Large (>1 m²)

Expand to show TLE details & history

TLE from 4 hours ago
0 STARLINK-33988
1 63938U 25098N   25175.51253882  .00022531  00000-0  51620-3 0  9997
2 63938  69.9990 208.4641 0003673 272.4979  87.5783 15.42720964  7811
Epoch: 2025-06-24T12:18Z
TLE epoch observation values (Epoch: 2025-06-24T12:18:03.354Z)
Latitude
0.00007°
Longitude
111.04276°
Altitude
440.449 km
Speed
7.648 km/s
True Right ascension
13h 53m 51s
True Declination
0° 00' 00"
Sunlit
Object was in full shadow at epoch
Visualization orbit readout
Latitude
-68.20194°
Longitude
45.72195°
Altitude
460.625 km
Speed
7.637 km/s
Apparent Right ascension
13h 55m 49s
Apparent Declination
-62° 44' 45"
Sunlit
Object is in daylight
Visualization observer readout
Local Sidereal Time
03:49:02
Azimuth
152.834° SSE
Elevation
-61.602°
Doppler factor
1
Orbital elements
Apogee altitude
438.494 km
Perigee altitude
433.488 km
Semi-major axis
6,814.128 km
Eccentricity
0.00037
Inclination
69.999°
RAAN
208.4641°
Arg. of periapsis
272.4979°
True anomaly
Unknown
Mean anomaly
87.5783°
Eccentric anomaly
Unknown
Mean motion
3.85858 °/min
Orbital period
93.3 mins
BSTAR
0.0005162
Loading maneuver chart data...
Loading SW <> Apogee altitude chart data...
Loading historical data...
Loading historical data...
Loading historical data...
Loading historical data...
Loading historical data...
Loading historical data...
Loading historical data...

STARLINK-33988 Visibility forecast

Observer location: undefined°, undefined°

Span
Click to sort rows by Start time (UTC) header in descending order
Start Az.
Max El. time (UTC)
Max El. Az.
Max El.
End time (UTC)
End Az.
6 mins2025-06-25 04:00:10.437Z222.099° SW2025-06-25 04:03:10.437Z289.177° WNW36.26°2025-06-25 04:06:10.437Z10.801° NNE
4 mins2025-06-25 13:46:10.437Z302.607° NW2025-06-25 13:48:10.437Z245.219° WSW27.602°2025-06-25 13:50:10.437Z195.605° SSW
|